Regional Weather Roundup
Issued by NWS

Home | Current Version | Previous Version | Text Only | Print | Product List | Glossary On
Versions: 1 2 3 4 5 6 7 8 9 10 11 12 13 14 15 16 17 18 19 20 21 22 23 24 25 26 27 28 29 30 31 32 33 34 35 36 37 38 39 40 41 42 43 44 45 46 47 48 49 50
000
ASUS45 KTFX 011810
RWRMT
MONTANA REGIONAL WEATHER ROUNDUP
NATIONAL WEATHER SERVICE GREAT FALLS MT
1200 PM MDT SAT OCT 01 2016

NOTE: "FAIR" INDICATES FEW OR NO CLOUDS BELOW 12000 FEET WITH NO
SIGNIFICANT WEATHER AND/OR OBSTRUCTIONS TO VISIBILITY.

MTZ001>007-043-011900-
WEST OF THE DIVIDE

CITY           SKY/WX    TMP DP  RH WIND       PRES   REMARKS
KALISPELL      CLOUDY    57  54  89 N3        29.92F
MISSOULA       PTSUNNY   61  52  72 SE3       29.93F
BUTTE          CLOUDY    58  44  60 S8        30.03F
MULLAN PASS    FOG       41  40  96 NW5       29.99S VSB<1/4
ANACONDA         N/A     66  43  42 S13       29.98F
DEER LODGE       N/A     63  46  55 S5        30.01F
EUREKA           N/A     54  52  94 W5        29.93F
HAMILTON         N/A     63  48  59 S7        29.93F
LIBBY            N/A     55  52  88 CALM      29.92S
PLAINS           N/A     66  49  54 CALM      29.91F
RONAN            N/A     58  53  83 CALM      29.96F
THOMPSON FALLS   N/A     62  47  58 SW8       29.96F
$$

MTZ008-052>055-011900-
SOUTHWEST MONTANA

CITY           SKY/WX    TMP DP  RH WIND       PRES   REMARKS
BOZEMAN        CLOUDY    66  48  52 N8        30.00F
DILLON         MOSUNNY   60  45  57 NW3       30.00F
W YELLOWSTONE  LGT RAIN  48  43  81 N5        30.16F
ENNIS          PTSUNNY   66  43  42 S22G32    30.05F
THREE FORKS      N/A     63  35  35 NE6       29.99S
TWIN BRIDGES     N/A     60  50  69 CALM      30.00F
$$

MTZ009-010-012-014-046-048-049-054-011900-
EAST SLOPES AND CENTRAL MONTANA

CITY           SKY/WX    TMP DP  RH WIND       PRES   REMARKS
CUT BANK       CLOUDY    55  48  77 NW12      29.93S
GREAT FALLS    CLOUDY    67  47  48 S15       29.91S
MALMSTROM AFB  CLOUDY    67  48  50 SW12      29.91F
HELENA         MOSUNNY   65  46  50 CALM      29.94F
AUGUSTA        MOCLDY    60  46  59 S5        29.93R
BOWMANS CRNR   MOCLDY    64  44  47 SW17G23   29.91S
CHOTEAU          N/A     57  50  77 CALM      29.96R
CONRAD           N/A     54  53  96 W12       29.95F
FAIRFIELD        N/A     60  47  61 N1        29.92R
POWER            N/A     64  48  56 NW7       29.92R
RAYNESFORD     LGT RAIN  71  44  38 SW10G22   29.93F
$$

MTZ011-013-016-021-045-047-050-051-011900-
NORTH CENTRAL MONTANA

CITY           SKY/WX    TMP DP  RH WIND       PRES   REMARKS
HAVRE          SUNNY     74  57  55 W12       29.84R
LEWISTOWN      SUNNY     77  41  27 CALM      29.92S
N BAR RANCH      N/A     73  45  35 S16G23    29.97F
CHINOOK          N/A     72  57  60 E17G24    29.82F
DENTON         MOCLDY    77  46  32 S21       29.86S
GEYSER         MOCLDY    60  46  59 S5        29.93R
GRASS RANGE      N/A     77  45  31 S18G24    29.87F
JUDITH GAP       N/A     68  47  46 SW14G23   29.97S
ROY              N/A     74  56  51 MISG      29.88F
STANFORD       MOCLDY    70  46  41 W18G25    29.94R
WINIFRED         N/A     73  54  51 MISG      29.88F
$$

MTZ017>020-022>027-061-062-011900-
NORTHEAST MONTANA

CITY           SKY/WX    TMP DP  RH WIND       PRES   REMARKS
GLASGOW        SUNNY     71  52  50 SE13G20   29.89F
JORDAN           N/A     76  56  49 SE8       29.90F
SIDNEY         SUNNY     68  54  60 NE5       29.94F
WOLF POINT     SUNNY     71  53  52 E10       29.92F
PLENTYWOOD       N/A     70  50  49 SE10      29.95F
POPLAR           N/A     70  52  52 E7        29.92F
SCOBEY           N/A     76  51  41 E9        29.93F
$$

MTZ028>42-056>058-011900-
SOUTHCENTRAL AND SOUTHEAST MONTANA

CITY           SKY/WX    TMP DP  RH WIND       PRES   REMARKS
BAKER          SUNNY    N/A N/A N/A E9        29.97F
BILLINGS       MOSUNNY   70  47  43 SW5       29.94F
LIVINGSTON     SUNNY     70  42  36 SW14      29.96F
MILES CITY     SUNNY     72  53  51 VRB5      29.92F
BIG TIMBER     SUNNY     72  45  37 W18       29.99F
EKALAKA          N/A     79  47  32 E9        29.96F
FORSYTH          N/A     73  55  53 E7        29.91F
HARLOWTON        N/A     67  48  49 W8        29.97S
LAUREL           N/A     73  47  39 S1        29.93F
ROUNDUP          N/A     72  48  42 SW3       29.85F
$$

REGIONAL REPORTS...DAKOTAS

CITY           SKY/WX    TMP DP  RH WIND       PRES   REMARKS
WILLISTON      SUNNY     70  52  52 E3        29.96F
MINOT          SUNNY     69  50  50 SE10      29.98F
DICKINSON      SUNNY     70  49  47 SE8       29.95F
BEACH            N/A     73  50  43 SE7       29.98F
CROSBY           N/A     66  50  55 E10G17    29.99S
WATFORD CITY     N/A     70  50  49 SE9       29.96F
BISMARCK       SUNNY     71  50  47 SE15      30.00F
GRAND FORKS    CLOUDY    64  53  67 SE8       30.12F
FARGO          SUNNY     69  54  58 SE10      30.12F
BUFFALO SD       N/A     78  52  40 E6        29.91F
RAPID CITY     SUNNY     78  50  37 VRB3      29.98F
$$

REGIONAL REPORTS...WYOMING/IDAHO/WASHINGTON

CITY           SKY/WX    TMP DP  RH WIND       PRES   REMARKS
GILLETTE       SUNNY     75  47  36 SE8       30.02F
SHERIDAN       SUNNY     77  53  43 VRB5      29.95F
BUFFALO WY     SUNNY     75  46  35 SE16      30.03F
CODY           SUNNY     73  41  31 SE10      30.02F
YELLOWSTONE LA   N/A     46  45  96 VRB5      30.26R
IDAHO FALLS    CLOUDY    69  47  45 S17       30.04F
SALMON         CLOUDY    59  52  77 NW5       29.98F
BOISE          SUNNY     68  30  24 NW12      30.01F
SPOKANE        LGT RAIN  50  42  74 S6        29.99S
$$

REGIONAL REPORTS...ALBERTA

CITY           SKY/WX    TMP DP  RH WIND       PRES   REMARKS
EDMONTON       LGT RAIN  46  45  93 E15       29.92F
CALGARY        LGT RAIN  48  46  93 N7        29.89S FOG
LETHBRIDGE     CLOUDY    52  50  93 S2        29.89F
MEDICINE HAT   CLOUDY    59  52  77 SW8       29.85S
WATERTON GATE    N/A     55  50  82 SE3         N/A
MILK RIVER       N/A     55  50  82 W12         N/A
$$

REGIONAL REPORTS...SASKATCHEWAN

CITY           SKY/WX    TMP DP  RH WIND       PRES   REMARKS
SWIFT CURRENT  SUNNY     68  54  60 SE16G24   29.89F
SASKATOON      CLOUDY    52  52 100 E12       30.02F
CYPRESS HILLS    N/A     68  50  52 SE16G24     N/A
VAL MARIE        N/A     73  54  49 S12G18      N/A
ROCKGLEN         N/A     72  52  49 SE10        N/A
ASSINIBOIA       N/A     48  46  93 NE14        N/A
$$



USA.gov is the U.S. government's official web portal to all federal, state and local government web resources and services.